DW0148 Weather Reports


time (UTC)temp
C
wind
direction
speed
KPH
gust
KPH
rain 1hr
cm
rain 24hr
cm
rain mn
cm
humidity
%
barometer
mb
20260901232210 28 153 0.0 0.0 0.00 0.00 0.00 84 1015.6
20260901231709 28 153 0.0 0.0 0.00 0.00 0.00 84 1015.6
20260901231208 29 154 0.0 0.0 0.00 0.00 0.00 84 1015.6
20260901230635 29 154 0.0 0.0 0.00 0.00 0.00 83 1015.6
20260901230134 30 154 0.0 0.0 0.00 0.00 0.00 82 1015.6
20260901225633 30 153 0.0 0.0 0.00 0.00 0.00 80 1015.6
20260901225132 30 153 0.0 0.0 0.00 0.00 0.00 79 1015.6
20260901224631 30 153 0.0 0.0 0.00 0.00 0.00 77 1015.6
20260901224129 30 153 0.0 0.0 0.00 0.00 0.00 76 1015.6
20260901223628 31 153 0.0 0.0 0.00 0.00 0.00 74 1015.6
20260901223127 31 153 0.0 0.0 0.00 0.00 0.00 73 1015.6
20260901222625 31 154 0.0 0.0 0.00 0.00 0.00 73 1015.6
20260901222124 31 154 0.0 0.0 0.00 0.00 0.00 71 1015.6
20260901221551 32 154 0.0 0.0 0.00 0.00 0.00 71 1015.6
20260901221050 32 153 0.0 0.0 0.00 0.00 0.00 68 1015.6
20260901220549 32 154 0.0 0.0 0.00 0.00 0.00 67 1015.6
20260901220047 32 154 0.0 0.0 0.00 0.00 0.00 64 1015.6
20260901215546 32 155 0.0 0.0 0.00 0.00 0.00 64 1015.6
20260901215044 32 153 0.0 0.0 0.00 0.00 0.00 63 1015.6
20260901214543 32 145 0.0 0.0 0.00 0.00 0.00 61 1015.6
20260901214042 33 148 0.0 0.0 0.00 0.00 0.00 60 1015.6
20260901213541 33 142 0.0 0.0 0.00 0.00 0.00 62 1015.6
20260901213040 33 141 0.0 0.0 0.00 0.00 0.00 59 1015.6
20260901212539 33 163 0.0 0.0 0.00 0.00 0.00 60 1015.6
20260901212038 34 145 0.0 0.0 0.00 0.00 0.00 57 1015.6
20260901211537 34 145 0.0 0.0 0.00 0.00 0.00 60 1015.6
20260901211034 34 146 0.0 0.0 0.00 0.00 0.00 58 1015.6
20260901210534 35 146 0.0 0.0 0.00 0.00 0.00 59 1015.6
20260901210031 35 174 0.0 0.0 0.00 0.00 0.00 57 1015.6
20260901205530 35 165 0.0 0.0 0.00 0.00 0.00 59 1015.6
20260901205030 35 173 0.0 0.0 0.00 0.00 0.00 59 1015.9
20260901204529 35 174 0.0 0.0 0.00 0.00 0.00 55 1015.9
20260901204028 35 174 0.0 0.0 0.00 0.00 0.00 56 1015.9
20260901203525 35 187 0.0 0.0 0.00 0.00 0.00 56 1015.9
20260901203025 35 174 0.0 0.0 0.00 0.00 0.00 56 1015.9
20260901202523 35 187 0.0 0.0 0.00 0.00 0.00 55 1015.9
20260901202022 35 186 0.0 0.0 0.00 0.00 0.00 53 1015.9
20260901201522 35 172 0.0 0.0 0.00 0.00 0.00 56 1015.9
20260901201021 35 162 0.0 0.0 0.00 0.00 0.00 53 1016.3
20260901200519 35 187 0.0 0.0 0.00 0.00 0.00 60 1016.3
20260901200018 35 188 0.0 0.0 0.00 0.00 0.00 59 1016.3
20260901195444 35 188 0.0 0.0 0.00 0.00 0.00 57 1016.3
20260901194943 35 183 0.0 0.0 0.00 0.00 0.00 56 1016.3
20260901194441 35 158 0.0 0.0 0.00 0.00 0.00 55 1016.3
20260901193940 34 150 0.0 0.0 0.00 0.00 0.00 60 1016.3
20260901193407 34 172 0.0 0.0 0.00 0.00 0.00 57 1016.3
20260901192906 34 143 0.0 0.0 0.00 0.00 0.00 59 1016.3
20260901192302 34 190 0.0 0.0 0.00 0.00 0.00 56 1016.3
20260901191801 33 155 0.0 0.0 0.00 0.00 0.00 56 1016.6
20260901191258 33 139 0.0 0.0 0.00 0.00 0.00 57 1016.6
20260901190756 33 140 0.0 0.0 0.00 0.00 0.00 56 1016.6
20260901190254 33 139 0.0 0.0 0.00 0.00 0.00 59 1016.6
20260901185753 33 143 0.0 0.0 0.00 0.00 0.00 59 1016.6
20260901185252 33 150 0.0 0.0 0.00 0.00 0.00 60 1016.9
20260901184751 33 188 0.0 0.0 0.00 0.00 0.00 57 1016.9
20260901184250 33 141 0.0 0.0 0.00 0.00 0.00 57 1016.9
20260901183748 34 139 0.0 0.0 0.00 0.00 0.00 56 1016.9
20260901183247 33 169 0.0 0.0 0.00 0.00 0.00 58 1016.9
20260901182745 33 181 0.0 0.0 0.00 0.00 0.00 59 1016.9
20260901182243 33 177 0.0 0.0 0.00 0.00 0.00 58 1017.3
20260901181741 33 142 0.0 0.0 0.00 0.00 0.00 56 1017.3
20260901181240 33 190 0.0 0.0 0.00 0.00 0.00 60 1017.3
20260901180739 33 142 0.0 0.0 0.00 0.00 0.00 58 1017.3
20260901180237 33 184 0.0 0.0 0.00 0.00 0.00 57 1017.3
20260901175736 33 185 0.0 0.0 0.00 0.00 0.00 60 1017.3
20260901175235 33 185 0.0 0.0 0.00 0.00 0.00 58 1017.3
20260901174734 33 166 0.0 0.0 0.00 0.00 0.00 56 1017.3
20260901174201 33 167 0.0 0.0 0.00 0.00 0.00 60 1017.6
20260901173700 33 181 0.0 0.0 0.00 0.00 0.00 57 1017.6